Sulphur Springs, TX

12:40 PM CST on December 10, 2016 (GMT -0600)
Sulphur Springs Municipal

Weather History for KSLR - March, 2013

Change the Weather History Date:

Friday, March 29, 2013

  Actual Average (KGVT) Record (KGVT)
Temperature  
Mean Temperature 66 °F -  
Max Temperature 73 °F 68 °F 82 °F (2015)
Min Temperature 59 °F 52 °F 32 °F (2009)
Cooling Degree Days 1    
Growing Degree Days 16 (Base 50)    
Moisture  
Dew Point 53 °F    
Average Humidity 63    
Maximum Humidity 82    
Minimum Humidity 50    
Precipitation  
Precipitation 0.00 in - - ()
Sea Level Pressure  
Sea Level Pressure 30.17 in    
Wind  
Wind Speed 11 mph (South)    
Max Wind Speed 22 mph    
Max Gust Speed 26 mph    
Visibility 10 miles    
Events      
Averages and records for this station are not official NWS values.
T = Trace of Precipitation, MM = Missing Value Source: NWS Daily Summary

Daily Weather History Graph

Daily Weather History Graph

Search for Another Location

Airport or City:

Trip Planner

Search our weather history database for the weather conditions in past years. The results will help you decide how hot, cold, wet, or windy it might be!

Date:

Astronomy

Mar. 29, 2013 Rise Set
Actual Time 7:13 AM CDT 7:40 PM CDT
Civil Twilight 6:49 AM CDT 8:05 PM CDT
Nautical Twilight 6:19 AM CDT 8:34 PM CDT
Astronomical Twilight 5:50 AM CDT 9:04 PM CDT
Moon 10:31 PM CDT (3/29) 8:32 AM CDT (3/29)
Length of Visible Light 13h 16m
Length of Day
12h 26m
Waning Gibbous, 93% of the Moon is Illuminated
Mar 29
Waning Gibbous
Apr 2
Last Quarter
Apr 10
New
Apr 18
First Quarter
Apr 25
Full

Hourly Weather History & Observations

Time (CDT) Temp. Dew Point Humidity Pressure Visibility Wind Dir Wind Speed Gust Speed Precip Events Conditions
12:15 AM 64.4 °F 51.8 °F 64% 30.18 in 10.0 mi SSE 12.7 mph - N/A   Overcast
12:35 AM 64.4 °F 51.8 °F 64% 30.18 in 10.0 mi SSE 10.4 mph - N/A   Mostly Cloudy
12:55 AM 64.4 °F 51.8 °F 64% 30.18 in 10.0 mi SSE 12.7 mph 16.1 mph N/A   Mostly Cloudy
1:15 AM 62.6 °F 51.8 °F 68% 30.18 in 10.0 mi South 10.4 mph - N/A   Overcast
1:35 AM 62.6 °F 51.8 °F 68% 30.19 in 10.0 mi SSE 8.1 mph - N/A   Overcast
1:55 AM 62.6 °F 51.8 °F 68% 30.19 in 10.0 mi South 9.2 mph - N/A   Overcast
2:15 AM 62.6 °F 51.8 °F 68% 30.19 in 10.0 mi South 8.1 mph - N/A   Overcast
2:35 AM 62.6 °F 51.8 °F 68% 30.19 in 10.0 mi South 10.4 mph - N/A   Overcast
2:55 AM 62.6 °F 51.8 °F 68% 30.18 in 10.0 mi South 9.2 mph - N/A   Overcast
3:15 AM 62.6 °F 51.8 °F 68% 30.18 in 10.0 mi South 8.1 mph - N/A   Overcast
3:35 AM 62.6 °F 51.8 °F 68% 30.18 in 10.0 mi South 5.8 mph - N/A   Overcast
3:55 AM 62.6 °F 51.8 °F 68% 30.19 in 10.0 mi South 8.1 mph - N/A   Overcast
4:15 AM 62.6 °F 51.8 °F 68% 30.19 in 10.0 mi South 5.8 mph - N/A   Overcast
4:35 AM 62.6 °F 53.6 °F 72% 30.19 in 10.0 mi South 5.8 mph - N/A   Overcast
4:55 AM 62.6 °F 53.6 °F 72% 30.19 in 10.0 mi South 9.2 mph - N/A   Overcast
5:15 AM 60.8 °F 53.6 °F 77% 30.19 in 10.0 mi South 12.7 mph - N/A   Mostly Cloudy
5:35 AM 60.8 °F 53.6 °F 77% 30.19 in 10.0 mi SSW 16.1 mph 19.6 mph N/A   Mostly Cloudy
5:55 AM 60.8 °F 53.6 °F 77% 30.19 in 10.0 mi SSW 11.5 mph - N/A   Mostly Cloudy
6:15 AM 60.8 °F 53.6 °F 77% 30.18 in 10.0 mi SSW 15.0 mph - N/A   Scattered Clouds
6:35 AM 59.0 °F 53.6 °F 82% 30.19 in 10.0 mi SSW 8.1 mph - N/A   Scattered Clouds
6:55 AM 59.0 °F 53.6 °F 82% 30.19 in 10.0 mi South 9.2 mph - N/A   Scattered Clouds
7:15 AM 59.0 °F 53.6 °F 82% 30.19 in 10.0 mi SSW 9.2 mph - N/A   Clear
7:35 AM 59.0 °F 53.6 °F 82% 30.20 in 10.0 mi SSW 8.1 mph - N/A   Mostly Cloudy
7:55 AM 59.0 °F 53.6 °F 82% 30.21 in 10.0 mi SSW 9.2 mph - N/A   Mostly Cloudy
8:15 AM 59.0 °F 53.6 °F 82% 30.22 in 10.0 mi SSW 9.2 mph - N/A   Mostly Cloudy
8:35 AM 60.8 °F 53.6 °F 77% 30.22 in 10.0 mi SSW 9.2 mph - N/A   Scattered Clouds
8:55 AM 60.8 °F 53.6 °F 77% 30.22 in 1.8 mi SSW 11.5 mph - N/A   Haze
9:15 AM 62.6 °F 53.6 °F 72% 30.22 in 10.0 mi SW 15.0 mph - N/A   Mostly Cloudy
9:35 AM 62.6 °F 53.6 °F 72% 30.22 in 10.0 mi SSW 10.4 mph - N/A   Scattered Clouds
9:55 AM 64.4 °F 55.4 °F 73% 30.22 in 10.0 mi SSW 11.5 mph 18.4 mph N/A   Scattered Clouds
10:15 AM 66.2 °F 55.4 °F 68% 30.21 in 10.0 mi SW 17.3 mph 25.3 mph N/A   Scattered Clouds
10:35 AM 68.0 °F 53.6 °F 60% 30.21 in 10.0 mi SSW 18.4 mph 24.2 mph N/A   Clear
10:55 AM 68.0 °F 53.6 °F 60% 30.21 in 10.0 mi SW 17.3 mph 23.0 mph N/A   Scattered Clouds
11:15 AM 68.0 °F 53.6 °F 60% 30.21 in 10.0 mi SW 21.9 mph 26.5 mph N/A   Clear
11:55 AM 69.8 °F 53.6 °F 56% 30.20 in 10.0 mi SW 17.3 mph 23.0 mph N/A   Scattered Clouds
12:15 PM 71.6 °F 55.4 °F 57% 30.20 in 10.0 mi SW 18.4 mph 23.0 mph N/A   Mostly Cloudy
12:35 PM 71.6 °F 55.4 °F 57% 30.19 in 10.0 mi WSW 16.1 mph 20.7 mph N/A   Mostly Cloudy
12:55 PM 71.6 °F 53.6 °F 53% 30.19 in 10.0 mi SW 12.7 mph - N/A   Mostly Cloudy
1:15 PM 71.6 °F 53.6 °F 53% 30.17 in 10.0 mi SW 16.1 mph 21.9 mph N/A   Mostly Cloudy
1:35 PM 71.6 °F 53.6 °F 53% 30.17 in 10.0 mi SW 16.1 mph 21.9 mph N/A   Mostly Cloudy
1:55 PM 69.8 °F 53.6 °F 56% 30.17 in 10.0 mi SW 13.8 mph - N/A   Mostly Cloudy
2:15 PM 71.6 °F 53.6 °F 53% 30.17 in 10.0 mi SW 12.7 mph - N/A   Mostly Cloudy
2:35 PM 71.6 °F 53.6 °F 53% 30.17 in 10.0 mi SW 6.9 mph - N/A   Mostly Cloudy
2:55 PM 73.4 °F 53.6 °F 50% 30.16 in 10.0 mi SSW 10.4 mph - N/A   Mostly Cloudy
3:15 PM 73.4 °F 53.6 °F 50% 30.15 in 10.0 mi SW 10.4 mph - N/A   Scattered Clouds
3:35 PM 73.4 °F 53.6 °F 50% 30.14 in 10.0 mi SSW 8.1 mph - N/A   Scattered Clouds
3:55 PM 73.4 °F 53.6 °F 50% 30.14 in 10.0 mi South 8.1 mph - N/A   Scattered Clouds
4:15 PM 71.6 °F 53.6 °F 53% 30.14 in 10.0 mi South 9.2 mph - N/A   Mostly Cloudy
4:35 PM 73.4 °F 55.4 °F 53% 30.13 in 10.0 mi SSE 6.9 mph - N/A   Overcast
4:55 PM 73.4 °F 53.6 °F 50% 30.13 in 10.0 mi South 9.2 mph - N/A   Mostly Cloudy
5:15 PM 71.6 °F 53.6 °F 53% 30.12 in 10.0 mi South 8.1 mph - N/A   Scattered Clouds
5:35 PM 71.6 °F 53.6 °F 53% 30.12 in 10.0 mi SSW 9.2 mph - N/A   Scattered Clouds
5:55 PM 71.6 °F 53.6 °F 53% 30.12 in 10.0 mi South 10.4 mph - N/A   Scattered Clouds
6:15 PM 71.6 °F 53.6 °F 53% 30.12 in 10.0 mi South 11.5 mph - N/A   Clear
6:35 PM 71.6 °F 53.6 °F 53% 30.12 in 10.0 mi South 9.2 mph - N/A   Scattered Clouds
6:55 PM 71.6 °F 53.6 °F 53% 30.12 in 10.0 mi South 9.2 mph - N/A   Scattered Clouds
7:15 PM 71.6 °F 53.6 °F 53% 30.13 in 10.0 mi South 8.1 mph - N/A   Scattered Clouds
7:35 PM 69.8 °F 53.6 °F 56% 30.12 in 10.0 mi SSE 5.8 mph - N/A   Scattered Clouds
7:55 PM 69.8 °F 53.6 °F 56% 30.12 in 10.0 mi South 6.9 mph - N/A   Scattered Clouds
8:15 PM 69.8 °F 55.4 °F 60% 30.12 in 10.0 mi SSE 6.9 mph - N/A   Scattered Clouds
8:35 PM 69.8 °F 53.6 °F 56% 30.12 in 10.0 mi South 8.1 mph - N/A   Clear
8:55 PM 69.8 °F 53.6 °F 56% 30.13 in 10.0 mi South 4.6 mph - N/A   Scattered Clouds
9:15 PM 69.8 °F 53.6 °F 56% 30.14 in 10.0 mi South 5.8 mph - N/A   Overcast
9:35 PM 68.0 °F 53.6 °F 60% 30.14 in 10.0 mi South 5.8 mph - N/A   Mostly Cloudy
9:55 PM 68.0 °F 53.6 °F 60% 30.14 in 10.0 mi South 5.8 mph - N/A   Mostly Cloudy
10:15 PM 68.0 °F 53.6 °F 60% 30.14 in 10.0 mi South 5.8 mph - N/A   Mostly Cloudy
10:35 PM 68.0 °F 53.6 °F 60% 30.14 in 10.0 mi SSE 6.9 mph - N/A   Scattered Clouds
10:55 PM 68.0 °F 53.6 °F 60% 30.14 in 10.0 mi South 5.8 mph - N/A   Mostly Cloudy
11:15 PM 68.0 °F 55.4 °F 64% 30.13 in 10.0 mi SSE 5.8 mph - N/A   Mostly Cloudy
11:35 PM 68.0 °F 53.6 °F 60% 30.11 in 10.0 mi SSE 9.2 mph - N/A   Scattered Clouds
11:55 PM 68.0 °F 53.6 °F 60% 30.10 in 10.0 mi South 8.1 mph - N/A   Clear